Wind_Speed
14 13 13 12 11 10 10 10 10 11 11 12 13 13 14 15 15 15 15 16 16 17 17 18 19 19 18 18 17 16 15 15 14 14 14 15 15 16 16 16 17 16 17
14 13 13 12 11 11 10 10 11 11 12 13 14 14 14 15 15 15 15 15 16 17 18 19 20 20 20 19 18 18 17 16 16 15 15 15 16 16 16 16 17 17 17
15 15 14 13 13 12 12 12 12 12 13 14 14 14 15 15 15 16 16 16 16 17 17 18 18 19 18 18 18 18 18 17 17 16 16 16 16 17 17 17 17 18 17
16 16 15 15 14 13 13 12 13 13 13 13 14 14 14 15 15 16 16 16 17 17 18 18 17 17 17 17 17 18 18 18 18 17 17 17 17 17 17 17 18 18 17
18 17 17 16 16 15 13 13 13 13 13 14 14 15 15 15 16 16 17 17 18 18 18 18 18 18 18 18 18 18 18 18 18 18 18 18 18 18 18 18 18 18 17
19 19 19 18 17 16 15 14 13 14 14 15 16 17 17 17 17 17 18 18 19 19 19 19 19 19 19 19 18 18 18 18 18 18 18 18 18 18 18 18 18 18 18
20 20 20 19 18 17 16 16 15 16 16 17 18 19 19 19 18 18 19 19 19 19 19 19 19 19 19 19 19 19 18 18 18 18 18 18 18 18 19 19 20 20 20
22 22 21 21 20 19 18 18 18 18 19 19 19 20 20 20 19 19 19 19 19 19 19 19 19 20 20 20 19 19 18 18 18 17 17 17 17 18 19 19 20 21 22
24 24 23 22 21 21 21 21 21 21 21 21 21 21 21 21 20 20 20 20 20 20 19 19 20 20 20 20 19 19 18 18 17 16 16 16 17 18 18 19 20 22 23
26 26 25 24 23 23 23 24 24 24 24 24 23 22 22 21 21 21 21 21 21 21 20 20 20 20 20 20 20 19 19 18 18 18 17 17 18 18 18 19 20 21 22
28 27 26 26 25 25 25 26 26 26 25 25 24 24 23 22 22 22 22 22 22 22 21 21 20 20 21 21 21 21 20 20 19 19 19 19 19 20 20 20 21 22 22
29 28 28 27 27 27 27 28 27 27 26 25 25 25 24 23 23 23 24 24 24 23 22 21 21 21 22 23 23 23 22 22 21 21 21 21 21 21 21 21 21 22 22
30 29 29 29 29 29 28 28 27 27 26 26 25 25 25 24 24 24 25 25 25 24 23 23 23 23 24 24 25 25 25 24 23 23 24 23 23 23 22 23 23 23 23
30 30 30 30 30 29 29 28 27 26 26 26 26 25 26 26 25 25 26 26 26 26 25 25 25 26 26 26 26 27 27 27 26 25 26 25 25 24 24 24 24 24 24
31 30 30 30 30 29 29 28 27 27 27 27 27 27 27 27 27 27 27 27 27 27 27 28 28 28 28 28 28 28 28 29 28 27 28 28 27 27 26 26 26 25 24
31 30 30 30 29 29 28 28 28 28 28 28 28 29 30 30 30 30 30 29 29 30 30 31 31 31 30 30 30 30 30 30 30 28 29 29 29 29 28 27 27 26 25
31 31 31 30 30 29 29 29 29 29 30 30 30 31 32 32 32 32 33 33 32 33 33 33 34 34 34 33 33 32 32 32 32 30 29 30 31 30 30 29 28 26 25
32 32 32 31 30 30 30 30 30 31 31 32 33 33 34 35 36 35 35 36 37 37 37 37 37 37 37 37 36 35 35 34 34 33 31 30 31 32 31 30 29 28 26
33 33 33 32 31 31 32 32 32 32 33 34 35 36 37 38 38 39 39 39 40 40 41 41 41 41 41 41 40 39 38 37 36 35 33 32 32 33 33 32 31 30 28
34 34 34 34 33 33 34 34 34 34 35 36 38 39 40 40 41 42 42 42 42 43 43 44 44 44 44 44 44 43 42 40 39 38 36 35 34 34 34 34 33 33 32
34 35 35 35 35 35 35 36 36 37 37 39 40 41 42 43 44 44 45 45 45 46 46 46 47 47 47 48 48 47 46 44 42 41 40 38 37 36 36 36 36 35 35
34 35 35 36 36 36 37 38 39 40 40 40 42 43 44 45 47 48 49 49 49 49 49 49 50 50 50 51 51 51 50 48 45 44 43 42 40 39 39 39 39 38 38
34 34 35 36 37 38 39 39 40 41 42 42 43 44 45 47 48 50 51 52 53 53 53 53 53 53 53 53 54 54 53 50 49 47 46 45 44 43 42 42 42 42 41
35 35 36 36 37 38 39 40 41 42 43 44 45 45 46 47 49 50 51 53 55 56 56 56 56 56 56 56 56 55 55 54 52 50 49 48 47 46 45 45 44 44 44
37 37 37 38 38 38 39 40 42 43 43 44 45 46 47 48 49 50 52 54 55 57 58 59 60 60 59 59 58 58 58 57 55 54 52 50 49 49 48 47 47 46 45
38 39 39 39 39 39 40 40 41 42 43 44 45 45 46 48 49 50 52 54 56 58 59 60 62 62 62 62 61 60 59 59 58 57 55 53 52 51 51 51 50 49 48
Wind_Direction
240 247 252 257 263 270 275 279 282 285 287 289 289 290 291 291 291 291 292 292 292 293 294 295 296 296 298 299 300 300 299 299 299 300 302 303 303 304 305 305 305 306 306
238 244 249 255 261 269 276 280 282 284 286 286 286 287 289 290 291 292 293 293 293 294 295 296 297 297 298 298 298 298 298 297 297 298 298 299 299 300 300 300 301 302 302
238 243 249 254 259 265 272 277 281 283 285 286 285 286 287 288 289 291 292 294 295 295 296 297 299 299 299 299 299 299 299 298 297 297 296 296 296 297 297 297 297 298 298
238 243 249 255 259 262 267 272 277 281 283 285 285 285 286 288 290 291 292 294 296 297 298 298 299 300 301 300 300 299 299 299 298 297 296 295 295 295 295 295 294 295 295
239 245 250 254 258 259 261 265 271 276 280 283 285 287 289 291 293 294 295 296 296 296 296 297 298 298 299 298 298 297 297 296 296 295 294 294 294 294 294 295 294 294 294
241 246 250 253 256 257 258 261 265 272 278 283 286 288 290 292 294 294 294 295 295 295 294 295 296 296 296 296 295 295 294 294 294 294 293 293 293 293 294 295 295 293 293
243 248 250 252 254 256 260 263 266 272 278 283 287 289 290 291 292 292 292 294 295 295 294 295 295 295 295 295 294 294 294 294 295 296 295 294 293 293 293 293 293 292 291
243 246 248 251 254 258 263 267 271 275 280 283 286 288 289 290 290 290 291 293 294 295 296 295 295 296 296 295 294 294 294 295 295 296 296 296 294 293 293 292 291 290 290
239 243 246 251 257 262 267 272 277 280 283 286 287 287 288 289 290 291 291 293 294 295 296 295 295 296 295 295 294 293 294 294 295 295 295 296 295 294 293 292 291 290 290
237 240 245 251 258 264 271 276 281 284 286 288 288 288 288 289 290 290 291 292 294 295 295 295 295 295 295 295 293 292 293 294 294 295 295 295 294 294 293 293 292 292 293
237 240 246 252 259 266 272 277 281 285 287 289 289 289 289 289 289 289 289 290 291 293 294 293 293 293 294 294 294 293 292 293 293 293 293 293 293 292 292 292 293 293 294
239 244 249 256 262 268 273 276 280 283 286 287 288 289 289 290 290 289 288 288 288 288 289 289 289 290 291 292 291 291 290 290 290 291 291 290 290 291 291 292 293 294 294
243 248 253 259 264 268 272 275 278 281 283 284 286 288 289 289 289 288 287 286 286 286 286 285 286 286 287 288 289 289 288 287 286 287 288 288 288 289 290 290 291 292 293
245 249 254 259 263 267 270 273 276 278 280 283 285 287 288 289 288 287 287 287 286 286 286 285 284 285 286 286 287 287 287 286 285 284 285 285 286 286 287 288 289 290 291
245 249 254 258 262 266 269 273 275 277 280 283 285 286 287 288 288 287 286 285 286 286 286 285 284 284 286 287 287 287 287 286 285 284 283 283 283 284 285 286 288 288 289
246 250 254 258 261 265 268 272 275 278 280 283 286 287 288 288 287 286 285 284 284 284 284 284 284 284 285 286 286 287 287 286 285 283 282 282 282 282 283 284 286 287 286
248 250 253 257 260 263 267 271 274 278 281 284 285 286 287 287 286 286 285 284 282 281 281 282 283 283 284 284 284 285 285 286 285 283 281 281 281 281 281 282 284 285 284
248 251 254 257 260 263 267 270 274 278 281 283 284 285 285 286 285 285 284 284 283 282 281 281 281 282 282 282 282 282 283 283 283 283 281 280 280 279 279 280 281 282 281
249 253 256 258 260 263 266 270 274 278 281 283 284 285 285 285 285 285 285 284 284 283 283 283 281 280 280 280 280 281 281 281 280 280 280 280 278 278 278 278 279 279 278
251 254 256 259 260 263 267 271 274 277 280 282 284 285 286 286 286 285 285 284 284 283 282 282 281 279 279 279 279 278 278 278 278 279 278 277 276 275 276 276 276 276 276
251 253 256 258 260 263 268 272 275 277 279 281 283 284 285 285 285 284 283 282 282 281 280 279 278 278 277 277 277 276 275 275 276 277 276 275 274 274 274 274 275 275 275
253 254 256 259 261 264 268 272 275 278 280 281 282 283 283 282 282 282 282 282 281 280 279 278 277 276 275 275 275 274 274 274 274 274 273 273 273 273 273 273 273 273 274
256 257 258 260 263 266 270 273 276 279 280 281 281 280 280 280 280 281 281 281 280 280 279 278 277 276 275 274 274 274 274 273 272 272 272 272 272 273 273 273 272 272 272
260 262 263 264 266 269 272 274 276 278 279 280 280 279 279 278 278 279 279 279 279 279 279 278 277 276 274 273 273 272 272 271 271 270 270 271 272 273 273 274 274 274 273
263 266 268 269 270 272 273 274 276 277 278 279 279 279 279 279 279 279 279 279 279 279 278 278 277 276 274 273 271 270 270 270 270 270 269 270 271 272 273 274 275 276 276
264 266 268 270 271 272 273 274 276 277 278 278 279 280 280 281 281 281 281 281 280 279 279 278 276 275 274 272 270 269 268 268 269 268 268 268 270 271 273 274 276 276 276
Height
5878 5879 5880 5881 5882 5883 5884 5885 5886 5886 5887 5887 5888 5888 5888 5888 5889 5889 5889 5889 5890 5890 5890 5889 5889 5889 5888 5888 5887 5887 5886 5886 5885 5885 5884 5884 5884 5883 5883 5882 5882 5881 5880
5876 5877 5878 5879 5880 5882 5883 5884 5884 5885 5885 5886 5886 5886 5887 5887 5887 5887 5887 5887 5888 5888 5887 5887 5887 5886 5886 5885 5885 5884 5884 5884 5883 5883 5882 5882 5881 5881 5880 5880 5879 5879 5878
5874 5875 5877 5878 5879 5880 5881 5882 5883 5883 5884 5884 5884 5884 5885 5885 5885 5885 5885 5885 5885 5885 5885 5885 5884 5884 5883 5883 5882 5882 5882 5881 5881 5881 5880 5880 5879 5878 5878 5877 5877 5876 5875
5872 5874 5875 5876 5877 5878 5879 5880 5881 5882 5882 5882 5882 5883 5883 5883 5883 5883 5883 5883 5883 5883 5882 5882 5882 5881 5881 5880 5880 5879 5879 5879 5878 5878 5878 5877 5876 5876 5875 5875 5874 5873 5873
5870 5872 5873 5874 5875 5876 5877 5878 5879 5880 5880 5880 5881 5881 5881 5881 5881 5881 5881 5881 5880 5880 5880 5880 5879 5879 5878 5878 5877 5877 5876 5876 5876 5875 5875 5874 5873 5873 5872 5872 5871 5871 5870
5868 5870 5871 5872 5873 5874 5875 5876 5877 5878 5878 5878 5879 5879 5879 5879 5879 5879 5879 5878 5878 5878 5877 5877 5876 5876 5876 5875 5874 5874 5873 5873 5872 5872 5872 5871 5870 5870 5869 5869 5869 5868 5868
5866 5867 5868 5869 5870 5872 5873 5874 5875 5875 5876 5876 5876 5876 5876 5876 5876 5876 5876 5876 5875 5875 5874 5874 5874 5873 5872 5872 5871 5870 5870 5869 5869 5868 5868 5867 5867 5866 5866 5866 5865 5865 5865
5863 5863 5865 5866 5868 5869 5870 5871 5872 5873 5873 5874 5874 5874 5874 5874 5874 5874 5873 5873 5873 5872 5872 5871 5871 5870 5869 5868 5868 5867 5866 5866 5865 5865 5864 5864 5864 5863 5863 5862 5862 5862 5861
5859 5860 5862 5863 5865 5866 5867 5868 5869 5870 5870 5871 5871 5871 5871 5871 5871 5871 5870 5870 5870 5869 5869 5868 5868 5867 5866 5865 5864 5864 5863 5862 5862 5861 5861 5860 5860 5860 5859 5859 5858 5858 5857
5855 5857 5859 5860 5862 5863 5864 5865 5866 5866 5867 5868 5868 5868 5868 5868 5868 5868 5867 5867 5866 5866 5865 5865 5864 5864 5863 5862 5861 5860 5860 5859 5859 5858 5858 5857 5857 5856 5855 5855 5854 5853 5853
5851 5853 5855 5857 5859 5860 5861 5861 5862 5863 5863 5864 5864 5864 5864 5865 5865 5864 5864 5863 5863 5863 5862 5861 5860 5860 5859 5858 5857 5857 5856 5856 5855 5855 5854 5853 5853 5852 5852 5851 5850 5849 5848
5847 5850 5851 5853 5854 5856 5857 5857 5858 5859 5859 5860 5860 5860 5861 5861 5861 5861 5860 5860 5859 5859 5858 5857 5857 5856 5855 5854 5854 5853 5852 5852 5852 5850 5850 5849 5849 5848 5847 5846 5845 5844 5843
5843 5845 5847 5848 5850 5851 5852 5853 5854 5855 5855 5856 5856 5856 5856 5857 5857 5857 5856 5856 5855 5855 5854 5853 5853 5852 5851 5850 5849 5849 5848 5847 5848 5846 5845 5845 5844 5843 5843 5842 5841 5840 5839
5839 5841 5842 5844 5845 5846 5848 5849 5849 5850 5851 5851 5851 5852 5852 5852 5852 5852 5852 5851 5851 5850 5850 5849 5848 5847 5846 5845 5845 5844 5843 5842 5843 5842 5840 5840 5839 5838 5838 5837 5836 5834 5833
5834 5836 5838 5839 5840 5842 5843 5844 5845 5845 5846 5846 5846 5847 5847 5847 5847 5847 5847 5847 5846 5845 5844 5844 5843 5842 5841 5840 5839 5839 5838 5837 5837 5837 5835 5835 5834 5833 5832 5831 5830 5829 5828
5829 5831 5833 5834 5836 5837 5838 5839 5840 5840 5841 5841 5841 5841 5841 5842 5841 5841 5841 5841 5840 5840 5839 5838 5837 5836 5836 5835 5833 5833 5832 5831 5830 5831 5830 5829 5828 5827 5827 5826 5825 5823 5822
5824 5826 5828 5829 5831 5832 5833 5834 5834 5835 5835 5836 5836 5836 5835 5835 5835 5835 5834 5834 5833 5832 5832 5831 5830 5830 5829 5829 5827 5826 5825 5825 5824 5824 5824 5823 5822 5821 5820 5820 5819 5818 5816
5818 5820 5822 5824 5826 5827 5828 5828 5829 5829 5829 5830 5829 5830 5829 5828 5828 5828 5827 5827 5826 5825 5824 5824 5823 5823 5822 5821 5821 5820 5819 5818 5817 5816 5817 5817 5816 5814 5814 5813 5813 5812 5810
5813 5815 5817 5818 5820 5821 5822 5822 5823 5823 5823 5823 5822 5822 5822 5821 5820 5820 5820 5819 5818 5817 5816 5816 5815 5814 5813 5813 5812 5812 5811 5810 5809 5809 5809 5809 5809 5808 5807 5807 5806 5805 5804
5807 5809 5810 5812 5814 5815 5815 5816 5817 5817 5817 5816 5815 5814 5814 5813 5812 5811 5811 5810 5809 5808 5807 5806 5805 5805 5804 5804 5803 5803 5803 5802 5801 5801 5801 5801 5800 5800 5800 5799 5799 5798 5797
5801 5802 5804 5806 5807 5808 5809 5809 5810 5810 5810 5809 5808 5807 5806 5804 5803 5802 5801 5800 5799 5798 5797 5796 5795 5794 5794 5793 5792 5792 5792 5792 5793 5793 5792 5792 5791 5791 5791 5791 5790 5790 5789
5794 5796 5797 5799 5800 5801 5802 5802 5802 5802 5802 5802 5800 5799 5797 5795 5793 5792 5790 5789 5788 5787 5786 5785 5784 5783 5782 5782 5781 5780 5781 5783 5783 5783 5782 5782 5782 5781 5782 5781 5781 5781 5780
5787 5789 5790 5792 5793 5793 5794 5794 5794 5793 5793 5792 5792 5790 5788 5786 5784 5782 5780 5778 5776 5775 5774 5773 5772 5771 5771 5770 5769 5769 5770 5771 5771 5772 5771 5771 5772 5772 5771 5771 5771 5770 5770
5779 5781 5782 5784 5785 5785 5786 5785 5785 5784 5784 5783 5781 5780 5778 5776 5774 5772 5769 5767 5764 5763 5761 5760 5759 5758 5757 5757 5757 5757 5757 5757 5759 5760 5760 5760 5760 5761 5760 5760 5760 5759 5759
5771 5772 5774 5775 5776 5776 5777 5776 5776 5775 5774 5773 5771 5769 5768 5766 5764 5761 5759 5756 5753 5751 5749 5747 5745 5744 5743 5743 5743 5743 5743 5743 5745 5746 5748 5748 5748 5749 5749 5748 5748 5748 5747
5763 5764 5765 5766 5767 5767 5767 5767 5766 5765 5764 5762 5761 5759 5757 5755 5753 5750 5747 5744 5741 5738 5735 5733 5730 5729 5728 5727 5728 5729 5729 5729 5731 5732 5733 5735 5736 5736 5736 5736 5736 5735 5734